COSMOS 1275 DEB

Satellite information

Favourite Embed

Satellite Type and Status

DEBRISIN ORBIT

Key statistics

Satellite COSMOS 1275 DEB at a glance.

Uptime

16044

Days in orbit

Revolutions

≈ 14.3

Per day

Orbit

LEO

Low Earth Orbit

Inclination

82.9

Latest

Satellite identification and parameters

Extended collection of information and parameters for COSMOS 1275 DEB.

Object identification

Identified? True

Debris? True

Object name: COSMOS 1275 DEB

International designator: 1981-053BX

Object number (NORAD): 12730

Object ID (CCSDS): 12730

Country: COMMONWEALTH OF INDEPENDENT STATES (CIS)

Current information (Y/N): Y

RCS size: MEDIUM

Orbital parameters

Period: 100.51 minutes

Inclination: 82.9395 deg

SMA: 7160.867 km

Apoapsis: 792.715 km

Periapsis: 772.749 km

RAAN: 344.491 deg

Eccentricy: 0.0013941

Argument of periapsis: 258.6659 deg

Mean anomaly: 176.2633 deg

Mean motion: 14.32697136 rev/day

Mean motion (dot): 0.00004169 rev/day2

B* drag term: 0.0015251 1/REarth

Two-line elements (TLE)

Creation date: May 8, 2025, 3:01 a.m.

Reference frame: TEME

Reference center: EARTH

Epoch: May 7, 2025, 4:44 p.m. UTC

TLE line 0: 0 COSMOS 1275 DEB

TLE line 1: 1 12730U 81053BX 25127.69775683 .00004169 00000-0 15251-2 0 9994

TLE line 2: 2 12730 82.9395 344.4910 0013941 258.6659 176.2633 14.32697136238974

Live tracking on map

Real-time ground track for satellite COSMOS 1275 DEB.

In-orbit conjunctions

A list of the most updated potential collisions computed for object COSMOS 1275 DEB.

Target Orbit TCA Probability of collision Miss distance Type
NOAA 16 DEB SSO 2025-04-08 11:11:43 0.0001921993 101.0 (m) DEBRIS
CZ-6A DEB LEO 2025-02-24 11:45:25 0.0001020407 371.0 (m) DEBRIS
CZ-6A DEB LEO 2024-12-25 21:22:31 0.0001275561 64.0 (m) DEBRIS
KITSAT B SSO 2024-10-06 23:26:10 0.0004506324 228.0 (m) PAYLOAD
FENGYUN 1C DEB SSO 2024-08-22 20:50:50 0.00010039 168.0 (m) DEBRIS

Associated space launch

Navigation satellite providing location information for the Tsiklon-B navigation system

COSMOS 1275 DEB was lifted into orbit during the mission ‘Kosmos-3M | Parus 27’, on board a Kosmos-3M space rocket.

The launch took place on June 4, 1981, 3:41 p.m. from 132/2.

For more information about the launch, click the button.

Launch to space Kosmos-3M | Parus 27
Kosmos-3M | Parus 27

Agency: N/A

Status: Launch Successful

Launch date: June 4, 1981, 3:41 p.m. UTC

Rocket: Kosmos-3M

Launch pad: 132/2

Location: Plesetsk Cosmodrome, Russian Federation

...

Latest news about this satellite

There are no fresh news available about this satellite. Check back as we update our databases every day.


Newsletter sign-up

Weekly statistics, charts and insights to help you stay on top of the space industry.